User: anonymous   Login
Location: Unspecified
(0.0000°N, 0.0000°E)
Time: 11:25:59
(UTC+00:00)
Language:

APRIZESAT 3 - Orbit

View from above orbital plane
View from above orbital plane
View from above satellite
View from above satellite

Ground track
Ground track

The orbit data is extracted from the following two-line orbital elements,

1 35686U 09041F   17327.82347336  .00000137  00000-0  21611-4 0  9994
2 35686  98.2796 334.1321 0072381 214.1867 145.4676 14.87147527450916
Epoch (UTC): 23 November 2017 19:45:48
Eccentricity: 0.0072381
inclination: 98.2796°
perigee height: 556 km
apogee height: 657 km
right ascension of ascending node: 334.1321°
argument of perigee: 214.1867°
revolutions per day: 14.87147527
mean anomaly at epoch: 145.4676°
orbit number at epoch: 45091

The dashed part of the orbit path shows where the satellite is in the earth's shadow,  

DLR